* Astronomy

Members Login
Post Info TOPIC: Comet C/2016 U1 (NEOWISE)


L

Posts: 131433
Date:
RE: Comet C/2016 U1 (NEOWISE)
Permalink  
 


Comet C/2016 U1 (NEOWISE) is at magnitude +10.5 in the constellation Hercules on the 20th December 2016.

Distance to Earth: 0.74 AU
Distance to Sun: 0.75 AU

Comet2016 U1 NEOWISE_201216



__________________


L

Posts: 131433
Date:
Permalink  
 

Comet C/2016 U1 (NEOWISE) makes its closest approach to Earth (0.7 AU) on the 12th December 2016.

__________________


L

Posts: 131433
Date:
Permalink  
 

Comet C/2016 U1 (NEOWISE) is at magnitude +10.8 in the constellation Corona Borealis on the 13th December 2016.

Distance to Earth: 0.71 AU
Distance to Sun: 0.90 AU



__________________


L

Posts: 131433
Date:
Permalink  
 

Orbital elements:
    C/2016 U1 (NEOWISE)
T 2017 Jan. 14.02505 TT                                 MPCW
q   0.3191894            (2000.0)            P               Q
                   Peri.  162.76178     -0.63631195     +0.43631780
                   Node    61.41717     -0.76521321     -0.25249167
e   1.0            Incl.   46.42579     -0.09775396     -0.86364040
From 19 observations 2016 Oct. 21-Nov. 2.

MPEC 2016 - V16



__________________
Page 1 of 1  sorted by
 
Quick Reply

Please log in to post quick replies.



Create your own FREE Forum
Report Abuse
Powered by ActiveBoard